Location: Baumgartsau
(48.4586°N, 14.0864°E)
Time: 16:10:34
(UTC+00:00)

BREEZE M DEB (TANK) - Pass Details

Date: 21 May 2021
Orbit: 296 x 11842 km, 49.5° (Epoch: 22 June)

Event Time Altitude Azimuth Distance (km) Brightness Sun altitude
Rises 20:29:55 0° 298° (WNW) 5,771 8.7 -13.4°
Reaches altitude 10° 20:32:34 10° 293° (WNW) 5,416 8.3 -13.7°
Maximum altitude 20:51:32 52° 225° (SW) 6,665 7.6 -15.4°
Enters shadow 21:46:03 18° 172° (S) 14,709 8.8 -19.2°
